Terug naar catalogus

PALAPA B1 R/B

PAM-D

ActiefHEO
NORAD 14136·ROCKET BODY·🇺🇸 United States

Gelanceerd Jun 18, 1983 vanaf Cape Canaveral Space Force Station

Loading…

Volgende Passages (komende 24 uur)

TLE

VersSource: Space-Track

Epoch: Sep 12, 2026, 10:56 UTC

1 14136U 83059E   26255.45605634  .00001184  00000-0  10588-2 0  9991
2 14136  25.7745   8.0492 6922112 358.8373   0.0644  2.71343306349380

Volg PALAPA B1 R/B in realtime met AllMySat

Download on the App Store